UA1ZBE-13 Weather Reports


Display with metric or nautical units.
time (UTC)temp
F
wind
direction
speed
MPH
gust
MPH
rain 1hr
in
rain 24hr
in
rain mn
in
humidity
%
barometer
mb
20260504021523 30 0.0 0.0 0.00 0.00 0.00 981.4
20260504020523 30 0.0 0.0 0.00 0.00 0.00 981.4
20260504015522 30 0.0 0.0 0.00 0.00 0.00 981.3
20260504014522 30 0.0 0.0 0.00 0.00 0.00 981.4
20260504013522 30 0.0 0.0 0.00 0.00 0.00 981.4
20260504012522 30 0.0 0.0 0.00 0.00 0.00 981.6
20260504011521 30 0.0 0.0 0.00 0.00 0.00 981.5
20260504010521 30 0.0 0.0 0.00 0.00 0.00 981.5
20260504005521 30 0.0 0.0 0.00 0.00 0.00 981.4
20260504004521 30 0.0 0.0 0.00 0.00 0.00 981.3
20260504003521 30 0.0 0.0 0.00 0.00 0.00 981.3
20260504002520 30 0.0 0.0 0.00 0.00 0.00 981.2
20260504001520 31 0.0 0.0 0.00 0.00 0.00 981.3
20260504000520 31 0.0 0.0 0.00 0.00 0.00 981.3
20260503235520 31 0.0 0.0 0.00 0.00 0.00 981.2
20260503234519 31 0.0 0.0 0.00 0.00 0.00 981.3
20260503233519 31 0.0 0.0 0.00 0.00 0.00 981.2
20260503232519 31 0.0 0.0 0.00 0.00 0.00 981.2
20260503231519 31 0.0 0.0 0.00 0.00 0.00 981.2
20260503230519 31 0.0 0.0 0.00 0.00 0.00 981.3
20260503225518 31 0.0 0.0 0.00 0.00 0.00 981.2
20260503224518 32 0.0 0.0 0.00 0.00 0.00 981.4
20260503223518 32 0.0 0.0 0.00 0.00 0.00 981.5
20260503222518 33 0.0 0.0 0.00 0.00 0.00 981.5
20260503221517 33 0.0 0.0 0.00 0.00 0.00 981.6
20260503220517 33 0.0 0.0 0.00 0.00 0.00 981.5
20260503215517 33 0.0 0.0 0.00 0.00 0.00 981.4
20260503214517 34 0.0 0.0 0.00 0.00 0.00 981.5
20260503213517 34 0.0 0.0 0.00 0.00 0.00 981.4
20260503212516 34 0.0 0.0 0.00 0.00 0.00 981.4
20260503211516 35 0.0 0.0 0.00 0.00 0.00 981.5
20260503210516 35 0.0 0.0 0.00 0.00 0.00 981.5
20260503205516 35 0.0 0.0 0.00 0.00 0.00 981.4
20260503204515 35 0.0 0.0 0.00 0.00 0.00 981.6
20260503203515 36 0.0 0.0 0.00 0.00 0.00 981.6
20260503202515 36 0.0 0.0 0.00 0.00 0.00 981.5
20260503201515 36 0.0 0.0 0.00 0.00 0.00 981.5
20260503200515 36 0.0 0.0 0.00 0.00 0.00 981.5
20260503195514 37 0.0 0.0 0.00 0.00 0.00 981.3
20260503194514 37 0.0 0.0 0.00 0.00 0.00 981.4
20260503193514 37 0.0 0.0 0.00 0.00 0.00 981.4
20260503192514 37 0.0 0.0 0.00 0.00 0.00 981.4
20260503191513 38 0.0 0.0 0.00 0.00 0.00 981.3
20260503190513 38 0.0 0.0 0.00 0.00 0.00 981.3
20260503185513 38 0.0 0.0 0.00 0.00 0.00 981.2
20260503184513 38 0.0 0.0 0.00 0.00 0.00 981.2
20260503183512 38 0.0 0.0 0.00 0.00 0.00 981.1
20260503182512 39 0.0 0.0 0.00 0.00 0.00 981.2
20260503181512 39 0.0 0.0 0.00 0.00 0.00 981.1
20260503180512 40 0.0 0.0 0.00 0.00 0.00 981.1
20260503175512 41 0.0 0.0 0.00 0.00 0.00 981.1
20260503174511 42 0.0 0.0 0.00 0.00 0.00 981.1
20260503173511 44 0.0 0.0 0.00 0.00 0.00 981.1
20260503172511 44 0.0 0.0 0.00 0.00 0.00 981.2
20260503171511 44 0.0 0.0 0.00 0.00 0.00 981.1
20260503170510 46 0.0 0.0 0.00 0.00 0.00 981.2
20260503150508 62 0.0 0.0 0.00 0.00 0.00 981.2
20260503130505 48 0.0 0.0 0.00 0.00 0.00 980.7
20260503110502 45 0.0 0.0 0.00 0.00 0.00 980.1
20260503090500 42 0.0 0.0 0.00 0.00 0.00 979.2
20260503081459 40 0.0 0.0 0.00 0.00 0.00 978.9
20260503080458 40 0.0 0.0 0.00 0.00 0.00 978.9
20260503072458 39 0.0 0.0 0.00 0.00 0.00 978.8
20260503071457 39 0.0 0.0 0.00 0.00 0.00 978.7
20260503070457 38 0.0 0.0 0.00 0.00 0.00 978.7
20260503054455 38 0.0 0.0 0.00 0.00 0.00 978.5
20260503053455 38 0.0 0.0 0.00 0.00 0.00 978.7
20260503052455 37 0.0 0.0 0.00 0.00 0.00 978.5
20260503051455 36 0.0 0.0 0.00 0.00 0.00 978.5
20260503050454 36 0.0 0.0 0.00 0.00 0.00 978.7
20260503045454 36 0.0 0.0 0.00 0.00 0.00 978.6
20260503044454 36 0.0 0.0 0.00 0.00 0.00 978.6
20260503043454 36 0.0 0.0 0.00 0.00 0.00 978.5
20260503042454 35 0.0 0.0 0.00 0.00 0.00 978.5
20260503041453 35 0.0 0.0 0.00 0.00 0.00 978.5
20260503040453 35 0.0 0.0 0.00 0.00 0.00 978.4
20260503035453 35 0.0 0.0 0.00 0.00 0.00 978.4
20260503034453 35 0.0 0.0 0.00 0.00 0.00 978.4
20260503033452 35 0.0 0.0 0.00 0.00 0.00 978.3
20260503032452 34 0.0 0.0 0.00 0.00 0.00 978.3
20260503031452 34 0.0 0.0 0.00 0.00 0.00 978.2
20260503030452 34 0.0 0.0 0.00 0.00 0.00 978.2
20260503025451 33 0.0 0.0 0.00 0.00 0.00 978.1
20260503024451 33 0.0 0.0 0.00 0.00 0.00 978.0
20260503023451 33 0.0 0.0 0.00 0.00 0.00 978.0
20260503022451 33 0.0 0.0 0.00 0.00 0.00 978.0